Location: Gro�bocka
(50.8204°N, 11.9702°E)
Time: 13:36:31
(UTC+00:00)

Daily predictions for brighter satellites

Satellite Brightness Start Highest point End
(mag) Time Altitude Azimuth Time Altitude Azimuth Time Altitude Azimuth
SeaSat 1 4.1 16:22:03 10° ENE 16:25:01 16° NNE 16:28:00 10° N
Aureole 3 Rocket 4.2 16:21:47 10° SE 16:25:40 31° E 16:30:48 10° NNE
H-2A R/B 3.5 16:22:18 10° E 16:25:55 18° NE 16:29:32 10° NNE
Cosmos 2219 3.3 16:21:41 10° NNW 16:27:27 68° ENE 16:33:11 10° SE
H-2A R/B 3.7 16:24:56 10° S 16:29:18 51° W 16:33:44 10° NNW
Okean-O 3.7 16:26:21 10° ESE 16:29:53 24° ENE 16:33:26 10° N
USA 215 3.7 16:23:41 10° ENE 16:30:01 53° N 16:36:20 10° W
ATLAS 5 CENTAUR R/B 3.3 16:26:27 10° WNW 16:30:11 26° NNW 16:34:24 10° NE
SMAP 3.1 16:25:46 10° SSE 16:30:26 89° ENE 16:35:08 10° NNW
Cosmos 2266 Rocket 4.5 16:24:45 10° NNW 16:30:57 69° W 16:37:14 10° S
Cosmos 1331 Rocket 4.0 16:26:08 10° SSW 16:31:15 69° ESE 16:36:24 10° NNE
ATLAS 2AS CENTAUR R/B 3.7 16:24:50 10° NW 16:31:56 37° NNE 16:38:35 10° E
FALCON 9 DEB 3.6 16:29:24 10° SW 16:32:29 43° SSE 16:35:34 10° ENE
FALCON 9 DEB 3.5 16:31:24 10° SW 16:34:29 46° SSE 16:37:27 11° ENE
CSL-04 DEB 4.3 16:30:34 10° NNE 16:34:32 80° ESE 16:38:27 10° SSW
Cosmos 2082 4.2 16:29:10 10° NNW 16:34:34 40° NE 16:39:56 10° ESE
Lacrosse 5 2.6 16:31:19 10° WNW 16:36:08 42° N 16:40:58 10° ENE
Cosmos 1953 Rocket 3.5 16:33:48 10° N 16:38:14 75° E 16:42:41 10° SSE
AQUARIUS 4.2 16:34:11 10° SSE 16:38:41 87° WSW 16:43:14 10° NNW
GEOS 3 Rocket 4.5 16:36:41 10° E 16:41:29 34° NNE 16:46:19 10° NW
Cosmos 1656 4.3 16:36:47 10° S 16:41:50 36° ESE 16:46:58 10° NE
Cosmos 968 Rocket 3.6 16:37:03 10° NNW 16:42:12 53° ENE 16:47:15 10° SE
Cosmos 1408 3.8 16:40:03 10° NNE 16:43:01 22° ENE 16:45:57 10° ESE
GENESIS II 4.4 16:39:43 10° SW 16:43:46 81° NW 16:47:50 10° NE
Cosmos 2058 Rocket 3.4 16:43:10 10° SSE 16:47:27 45° E 16:51:46 10° NNE
ERBS 3.7 16:45:24 10° WNW 16:48:20 27° N 16:50:49 13° ENE
Feng Yun 1-1 Rocket 4.4 16:42:47 10° SSE 16:48:40 69° ENE 16:54:33 10° NNW
NOAA 12 4.5 16:43:23 10° S 16:48:40 72° WSW 16:54:01 10° NNW
FALCON 9 DEB 3.2 16:45:55 10° SW 16:49:06 55° SSE 16:51:36 15° ENE
CZ-4B R/B 3.9 16:44:38 10° S 16:50:08 61° WSW 16:55:36 10° NNW
ADEOS Rocket 3.6 16:43:47 10° NNE 16:50:11 73° WNW 16:57:15 10° SSW
Cosmos 1689 Rocket 3.2 16:50:09 10° NE 16:52:32 23° E 16:54:53 10° SSE
USA 281 3.7 16:47:28 10° SSE 16:53:59 66° WSW 17:00:33 10° NNW
Cosmos 1076 Rocket 4.4 16:51:14 10° N 16:54:52 27° ENE 16:58:30 10° SE
IRS-1C Rocket 4.1 16:51:54 10° SSE 16:57:06 64° ENE 17:02:20 10° N
FALCON 9 DEB 3.1 16:53:51 10° WNW 16:57:17 68° NNE 16:59:43 18° E
Cosmos 2227 Rocket 2.2 16:52:50 10° NNW 16:58:33 86° ENE 17:04:13 10° SSE
FALCON 9 DEB 3.0 16:55:28 10° WSW 16:58:40 66° SSE 17:00:47 19° ENE
CZ-4C R/B 3.6 16:53:23 10° NW 16:59:06 32° NNE 17:04:26 15° ENE
Cosmos 1892 2.9 16:55:22 10° N 16:59:09 49° ENE 17:02:56 10° SSE
Cosmos 2263 Rocket 3.4 16:55:40 10° NNW 17:00:16 24° NE 17:03:25 16° E
CSL-04 Rocket 4.4 16:57:01 10° ESE 17:01:51 32° ENE 17:06:40 10° N
Cosmos 1110 Rocket 4.4 16:56:43 10° SW 17:01:55 65° WNW 17:07:07 10° NNE
Cosmos 1939 Rocket 2.7 16:58:20 10° SSE 17:02:14 63° ENE 17:06:07 10° N
Cosmos 1302 Rocket 4.0 16:58:38 10° SSW 17:03:52 70° ESE 17:09:09 10° NNE
H-2A R/B 3.3 17:00:56 10° N 17:04:52 42° WNW 17:08:44 10° SW
USA 307 3.0 17:02:19 10° WNW 17:06:37 79° SSW 17:10:17 14° ESE
COSMO-SKYMED 1 2.8 17:02:33 10° NNE 17:06:47 47° E 17:10:58 10° S
SAR-Lupe-4 3.6 17:04:58 10° NNE 17:08:31 58° ESE 17:12:03 10° S
USA 308 3.0 17:07:18 10° WNW 17:11:35 75° SSW 17:15:04 15° ESE
Cosmos 1300 3.2 17:07:50 10° SSW 17:11:37 63° WNW 17:15:26 10° N
Cosmos 1486 Rocket 4.0 17:06:30 10° NNW 17:11:53 90° ENE 17:17:13 10° SSE
CZ-4B R/B 1.5 17:09:19 10° N 17:12:32 71° WNW 17:15:40 10° SSW
Cosmos 1400 Rocket 2.8 17:09:11 10° S 17:13:17 81° E 17:17:22 10° NNE
Cosmos 1825 2.8 17:11:21 10° N 17:14:48 32° ENE 17:17:29 15° SE
Cosmos 1697 Rocket 3.2 17:09:53 10° S 17:14:57 36° ESE 17:19:39 12° NE
ERS-2 2.5 17:12:40 10° N 17:16:18 64° WNW 17:19:55 10° SSW
Helios 1A Rocket 2.8 17:15:28 10° SSE 17:19:32 68° ENE 17:23:38 10° N
Meteor 2-8 Rocket 4.4 17:15:28 10° S 17:21:34 81° E 17:27:45 10° NNE
YAOGAN 1 2.7 17:17:43 10° SE 17:21:55 52° ENE 17:26:09 10° N
Cosmos 1503 Rocket 3.9 17:16:53 10° NNW 17:22:07 67° ENE 17:27:21 10° SE
BREEZE-M TANK 3.8 17:14:30 10° W 17:22:32 46° SSW 17:24:59 19° SE
S3M 4.1 17:16:54 10° SSE 17:22:47 52° E 17:28:45 10° NNE
CZ-4 R/B 4.4 17:18:47 10° SSE 17:22:56 83° ENE 17:27:08 10° NNW
Cosmos 1340 3.5 17:22:17 10° NNW 17:25:59 53° W 17:29:40 10° S
SAR-Lupe-1 3.9 17:22:46 10° NNE 17:26:23 87° ESE 17:29:56 10° SSW
CZ-2D R/B 3.1 17:23:47 10° SSE 17:27:35 87° ENE 17:31:26 10° NNW
Cosmos 1812 Rocket 4.1 17:24:15 10° SSE 17:28:15 35° E 17:32:14 10° NNE
Meteor 2-1 Rocket 4.3 17:23:26 10° SSE 17:28:43 50° E 17:34:04 10° NNE
Cosmos 44 3.8 17:24:33 10° WSW 17:29:05 57° NW 17:33:26 13° NE
Okean O Rocket 4.0 17:25:25 10° SSW 17:29:06 26° W 17:32:49 10° NW
CZ-4 R/B 1.1 17:26:32 10° SSE 17:30:23 71° ENE 17:34:15 10° N
SKYMED 3 4.5 17:26:30 10° NNE 17:30:53 80° ESE 17:35:13 10° SSW
Cosmos 1417 Rocket 4.4 17:26:45 10° S 17:32:59 74° E 17:39:21 10° NNE
Cosmos 1346 Rocket 2.7 17:29:51 10° NNW 17:33:52 89° W 17:37:52 10° S
Cosmos 2058 2.7 17:30:30 10° N 17:34:38 84° E 17:38:44 10° S
Cosmos 1354 Rocket 3.9 17:29:39 10° NNW 17:34:56 74° ENE 17:40:12 10° SSE
SL-4 R/B 1.7 17:31:40 10° WNW 17:35:14 79° SSW 17:36:32 38° ESE
Aureole 3 3.6 17:33:33 10° SSW 17:36:30 48° WNW 17:39:26 10° N
Cosmos 2151 3.5 17:33:42 10° N 17:37:31 34° ENE 17:37:31 34° ENE
Cosmos 2297 Rocket 3.4 17:32:32 10° NW 17:37:54 44° WSW 17:43:13 10° S
Cosmos 1980 Rocket 2.9 17:33:47 10° SSE 17:38:38 31° ESE 17:39:22 29° E
PSLV R/B 3.8 17:34:42 10° NNE 17:38:54 79° ESE 17:43:03 10° SSW
SJ-11-01 4.3 17:35:50 10° SSE 17:40:19 55° ENE 17:44:54 10° N
Cosmos 1992 Rocket 4.0 17:35:18 10° S 17:40:24 60° ESE 17:45:23 11° NNE
Timation 1 Rocket 4.3 17:35:11 10° NNW 17:41:15 75° ENE 17:46:16 15° SE
Meteor 2-15 Rocket 4.4 17:37:15 10° S 17:43:19 65° E 17:49:24 10° NNE
CZ-2C R/B 3.2 17:38:23 10° SSE 17:44:09 81° ENE 17:49:45 10° NNW
CSL-04 Debris 4.1 17:39:17 10° SSE 17:44:39 66° ENE 17:50:06 10° N
Cosmos 1315 Rocket 2.7 17:43:06 10° S 17:47:02 67° E 17:51:04 10° NNE
CRYOSAT 2 4.3 17:44:22 10° N 17:49:12 62° E 17:54:01 10° S
Cosmos 1553 Rocket 4.1 17:44:49 10° SSW 17:51:10 77° W 17:57:27 10° N
Cosmos 220 Rocket 3.9 17:48:34 10° SSW 17:52:57 83° ESE 17:55:51 21° NNE
Geosat 4.4 17:52:54 38° ESE 17:53:06 38° ESE 17:57:46 10° S
Ariane Rocket 3.8 17:53:41 31° NE 17:53:41 31° NE 17:57:45 10° N
Meteor 2-15 4.4 17:48:38 10° S 17:54:47 88° W 18:00:58 10° N
SKYMED 2 4.0 17:50:36 10° N 17:54:55 61° WNW 17:59:12 10° SSW
Cosmos 2227 4.4 17:49:49 10° NNW 17:55:17 47° NE 17:56:38 39° E
BREEZE-M R/B 3.8 17:51:33 10° W 17:55:34 69° SSW 17:59:00 31° ESE
USA 305 3.9 17:52:11 10° WNW 17:56:16 42° SW 17:58:11 26° SSE
Meteor 2-10 Rocket 3.4 17:51:42 10° SSW 17:56:58 87° W 18:02:05 10° NNE
Cosmos 1455 2.1 17:55:06 10° S 17:58:53 88° W 18:02:44 10° N
SeaSat 1 2.5 18:00:38 46° E 18:01:42 56° NE 18:06:33 10° NNW
Cosmos 2360 4.2 17:56:05 10° SSW 18:01:43 62° ESE 18:04:36 29° NE
NOSS 3-4 (A) 3.7 17:55:03 10° NW 18:01:54 74° NE 18:05:39 32° ESE
NOSS 3-4 (C) 3.7 17:55:10 10° NW 18:02:00 74° NE 18:05:43 33° ESE
USA 306 4.0 17:58:44 10° WNW 18:02:44 39° SW 18:04:26 27° S
H-2A R/B 2.1 17:59:09 10° SSE 18:04:36 86° ENE 18:10:06 10° NNW
DEBRIS 4.5 17:45:30 10° WSW 18:04:43 62° SSE 18:06:54 40° ESE
Okean-O 3.5 18:01:48 10° S 18:06:06 49° W 18:10:26 10° NNW
MOS 1 Rocket 3.2 18:02:46 10° NNE 18:07:27 67° ESE 18:12:25 10° S
FALCON 9 DEB 3.7 18:05:19 10° W 18:07:57 51° WNW 18:07:57 51° WNW
FALCON 9 DEB 3.9 18:07:18 10° W 18:09:47 46° WNW 18:09:47 46° WNW
Cosmos 2278 3.7 18:06:27 10° S 18:11:59 55° ESE 18:12:45 51° E
USA 215 3.4 18:10:10 39° ENE 18:12:34 61° NNE 18:19:00 10° WNW
NOSS 3-3 (A) 3.8 18:07:07 10° SW 18:13:00 80° SE 18:16:10 33° NE
NOSS 3-3 (C) 3.8 18:07:14 10° SW 18:13:08 79° SE 18:16:14 33° NE
ATLAS 5 CENTAUR R/B 3.7 18:12:47 10° NW 18:16:27 20° N 18:17:34 19° NNE
Cosmos 1408 4.4 18:14:48 10° NNW 18:18:05 32° W 18:21:22 10° SSW
COSMOS 2455 4.3 18:14:25 10° NNW 18:19:04 22° NNE 18:19:43 22° NNE
Meteor 2-3 Rocket 3.7 18:13:24 10° N 18:19:05 59° ENE 18:19:36 57° E
GEOS 3 Rocket 3.7 18:17:20 43° SE 18:19:10 82° SW 18:24:37 10° NW
Lacrosse 5 2.1 18:14:52 10° WNW 18:19:51 53° NNE 18:20:11 52° NNE
ARGOS 3.1 18:17:21 27° SSE 18:20:27 88° ENE 18:25:56 10° NNW
Cosmos 44 Rocket 3.3 18:15:43 10° SSW 18:19:58 60° SSE 18:19:58 60° SSE
ATLAS 2AS CENTAUR R/B 2.7 18:16:23 10° NW 18:24:02 78° NE 18:26:17 48° ESE
Cosmos 2278 Rocket 4.4 18:22:35 10° N 18:24:34 12° NNE 18:24:58 12° NNE
ERBS 4.1 18:21:53 10° NW 18:23:42 27° NW 18:23:42 27° NW
SL-08 RB Rocket 4.1 18:26:13 51° N 18:26:13 51° N 18:29:42 10° N
Cosmos 1844 Rocket 4.0 18:27:57 10° NNW 18:31:40 25° NNE 18:31:40 25° NNE
SJ 16-02 3.4 18:32:18 10° N 18:33:43 18° N 18:33:43 18° N
Cosmos 2369 3.8 18:30:46 10° SW 18:36:29 74° WNW 18:39:12 32° NNE
Cosmos 1777 Rocket 3.9 18:33:01 10° NNW 18:38:15 81° WSW 18:38:35 76° SSW
Cosmos 2184 Rocket 4.1 18:34:51 10° N 18:40:24 56° NE 18:40:24 56° NE
CSL-04 Rocket 4.5 18:36:37 10° S 18:42:00 50° W 18:47:21 10° NNW
Meteor 2-17 Rocket 4.2 18:38:09 10° N 18:44:14 81° E 18:44:33 78° SE
Cosmos 2263 Rocket 2.1 18:39:14 10° NNW 18:44:59 88° WSW 18:45:07 85° S
CZ-4C R/B 2.8 18:42:00 10° NW 18:48:51 66° NE 18:49:38 62° ENE
Cosmos 1697 Rocket 3.5 18:53:24 10° SW 18:58:49 47° NW 19:01:26 28° N
Cosmos 2074 Rocket 4.1 18:52:46 10° N 18:58:06 65° NNE 18:58:06 65° NNE
CZ-4 R/B 4.5 19:04:15 10° WSW 19:05:54 12° W 19:07:32 10° WNW
Cosmos 1980 Rocket 3.0 19:16:51 10° SW 19:21:13 46° W 19:21:13 46° W
SeaSat 1 4.3 19:40:26 26° W 19:40:26 26° W 19:43:43 10° NW
USA 215 4.0 19:57:31 48° WNW 19:57:31 48° WNW 20:02:07 10° WNW
ATLAS 5 CENTAUR R/B 4.4 19:57:40 10° NW 19:59:05 18° NNW 19:59:05 18° NNW
Lacrosse 5 4.3 19:57:58 10° WNW 19:59:23 19° WNW 19:59:23 19° WNW
ATLAS 2AS CENTAUR R/B 4.1 20:08:04 10° NW 20:13:44 31° WSW 20:13:44 31° WSW
CZ-4C R/B 4.2 20:30:39 10° NW 20:34:49 33° WNW 20:34:49 33° WNW
